Back to catalog

ARIANE 3 DEB

LostGTO
NORAD 33540·DEBRIS·🇫🇷 France

Launched Sep 8, 1988 from Guiana Space Centre

Loading…

TLE

StaleSource: Space-Track

Epoch: Sep 22, 2018, 00:09 UTC

1 33540U 88081Q   18265.00668594 -.00000027  00000-0  00000+0 0  9999
2 33540   7.1483  62.1588 6939083 234.7454  40.1105  2.15836826 99614

Track ARIANE 3 DEB in real time with AllMySat

Download on the App Store